Location: Artiguedieu
(43.5000°N, 0.5454°E)
Time: 05:59:45
(UTC+00:00)

Tiros 1 despin weight - All Passes

Search period start: 31 July 2021 00:00
Search period end: 10 August 2021 00:00
Orbit: 593 x 642 km, 48.2° (Epoch: 30 July)

Date Brightness Start Highest point End Pass type
(mag) Time Alt. Az. Time Alt. Az. Time Alt. Az.
31 Jul - 12:19:50 10° S 12:23:13 20° SE 12:26:38 10° E daylight
31 Jul - 13:59:36 10° WSW 14:04:17 80° SSE 14:09:00 10° ENE daylight
31 Jul - 15:41:33 10° W 15:46:07 49° N 15:50:41 10° ENE daylight
31 Jul - 17:23:34 10° WNW 17:28:11 55° NNE 17:32:46 10° E daylight
31 Jul - 19:05:15 10° WNW 19:09:50 58° SSW 19:14:22 10° SE daylight
31 Jul - 20:48:34 10° WSW 20:50:39 13° SW 20:52:44 10° SSW visible
01 Aug - 12:34:58 10° SSW 12:39:13 35° SE 12:43:29 10° ENE daylight
01 Aug - 14:15:55 10° WSW 14:20:36 71° NNW 14:25:17 10° ENE daylight
01 Aug - 15:58:03 10° WNW 16:02:36 47° N 16:07:08 10° ENE daylight
01 Aug - 17:39:53 10° WNW 17:44:35 73° NNE 17:49:14 10° ESE daylight
01 Aug - 19:21:44 10° WNW 19:25:56 34° SW 19:30:06 10° SSE daylight
02 Aug - 11:12:09 10° SSE 11:14:28 14° SE 11:16:49 10° ESE daylight
02 Aug - 12:50:44 10° SW 12:55:19 60° SSE 12:59:58 10° ENE daylight
02 Aug - 14:32:23 10° W 14:37:00 55° NNW 14:41:37 10° ENE daylight
02 Aug - 16:14:30 10° WNW 16:19:05 50° N 16:23:38 10° E daylight
02 Aug - 17:56:11 10° WNW 18:00:53 77° SSW 18:05:31 10° ESE daylight
02 Aug - 19:38:38 10° W 19:41:55 19° SW 19:45:10 10° S daylight
03 Aug - 11:26:35 10° SSW 11:30:22 25° SE 11:34:12 10° E daylight
03 Aug - 13:06:53 10° WSW 13:11:34 87° NNW 13:16:17 10° ENE daylight
03 Aug - 14:48:55 10° W 14:53:28 47° N 14:58:01 10° ENE daylight
03 Aug - 16:30:52 10° WNW 16:35:32 61° NNE 16:40:10 10° E daylight
03 Aug - 18:12:34 10° WNW 18:17:04 47° SW 18:21:31 10° SE daylight
04 Aug - 11:42:00 10° SW 11:46:24 44° SE 11:50:51 10° ENE daylight
04 Aug - 13:23:16 10° W 13:27:55 63° NNW 13:32:35 10° ENE daylight
04 Aug - 15:05:25 10° WNW 15:09:57 47° N 15:14:30 10° ENE daylight
04 Aug - 16:47:10 10° WNW 16:51:53 84° NNE 16:56:34 10° ESE daylight
04 Aug - 18:29:10 10° W 18:33:07 27° SW 18:37:02 10° SSE daylight
05 Aug - 10:18:30 10° S 10:21:35 18° SE 10:24:41 10° E daylight
05 Aug - 11:57:56 10° SW 12:02:34 73° SSE 12:07:15 10° ENE daylight
05 Aug - 13:39:47 10° W 13:44:21 51° N 13:48:56 10° ENE daylight
05 Aug - 15:21:49 10° WNW 15:26:26 53° N 15:31:01 10° E daylight
05 Aug - 17:03:29 10° WNW 17:08:08 64° SSW 17:12:45 10° SE daylight
05 Aug - 18:46:24 10° W 18:49:03 15° SW 18:51:39 10° SSW daylight
06 Aug - 10:33:27 10° SSW 10:37:32 32° SE 10:41:40 10° E daylight
06 Aug - 12:14:12 10° WSW 12:18:51 76° NNW 12:23:34 10° ENE daylight
06 Aug - 13:56:18 10° WNW 14:00:49 47° N 14:05:22 10° ENE daylight
06 Aug - 15:38:09 10° WNW 15:42:50 68° NNE 15:47:31 10° ESE daylight
06 Aug - 17:19:56 10° WNW 17:24:16 38° SW 17:28:34 10° SSE daylight
07 Aug - 09:11:11 10° SSE 09:12:51 12° SE 09:14:31 10° ESE daylight
07 Aug - 10:49:07 10° SW 10:53:37 54° SSE 10:58:12 10° ENE daylight
07 Aug - 12:30:39 10° W 12:35:14 57° NNW 12:39:53 10° ENE daylight
07 Aug - 14:12:45 10° WNW 14:17:19 49° N 14:21:53 10° E daylight
07 Aug - 15:54:27 10° WNW 15:59:10 84° SSW 16:03:51 10° ESE daylight
07 Aug - 17:36:42 10° W 17:40:16 22° SW 17:43:48 10° S daylight
08 Aug - 09:25:09 10° S 09:28:43 22° SE 09:32:19 10° E daylight
08 Aug - 11:05:12 10° WSW 11:09:50 86° SSE 11:14:32 10° ENE daylight
08 Aug - 12:47:10 10° W 12:51:42 48° N 12:56:15 10° ENE daylight
08 Aug - 14:29:07 10° WNW 14:33:46 58° NNE 14:38:24 10° E daylight
08 Aug - 16:10:48 10° WNW 16:15:22 52° SSW 16:19:54 10° SE daylight
08 Aug - 17:54:40 10° WSW 17:56:07 11° SW 17:57:36 10° SSW daylight
09 Aug - 09:40:27 10° SSW 09:44:43 39° SE 09:49:03 10° ENE daylight
09 Aug - 11:21:32 10° WSW 11:26:09 67° NNW 11:30:49 10° ENE daylight
09 Aug - 13:03:40 10° WNW 13:08:11 47° N 13:12:43 10° ENE daylight
09 Aug - 14:45:26 10° WNW 14:50:09 78° NNE 14:54:50 10° ESE daylight
09 Aug - 16:27:20 10° W 16:31:26 30° SW 16:35:31 10° SSE daylight
